METEOR 2-17 DEB, 45522

Orbit data source: Space-Track

METEOR 2-17 DEB, 45522 is space debris in LEO originally from a launch on Sat, 30 Jan 1988 UTC launched from the Plesetsk Missile And Space Complex (PKMTR). Debris objects in space refer to the collection of defunct objects orbiting the Earth. Examples of debris include non-operational satellites, rocket bodies, and fragments generated from explosions, collisions, or faulty payload assembly.

Loading next visibility...
Identifier
45522, 1988-005BC
Orbit
LEO
Country
Flag of CISCIS
Related business
Manufacturer
Unknown
Mission
Spacecraft
Bus & Motor
Unknown
Mass
Unknown
Launch date (UTC)
1988-01-30 (38 years ago)
Launch vehicle
Unknown
Launch site
Plesetsk Missile And Space Complex (PKMTR)
Object type
Payload
Rocket body
Debris
Shape & HBR
Unknown shape, 0.1 m
Radar Cross Section
Small (<0.1 m²)

Expand to show TLE details & history
Last TLE update: 1 day ago

TLE from 1 day ago
0 METEOR 2-17 DEB
1 45522U 88005BC  25351.17976418  .00001943  00000-0  12724-2 0  9993
2 45522  82.5331  57.6097 0014567 140.6007 219.6226 14.01634177566242
Epoch: 2025-12-17T04:18Z
TLE epoch observation values (Epoch: 2025-12-17T04:18:51.625Z)
Latitude
0.00006°
Longitude
-93.15873°
Altitude
899.229 km
Speed
7.398 km/s
True Right ascension
03h 50m 26s
True Declination
0° 00' 00"
Sunlit
Object was in full shadow at epoch
Visualization orbit readout
Latitude
Unknown
Longitude
Unknown
Altitude
Unknown
Speed
Unknown
Apparent Right ascension
Unknown
Apparent Declination
Unknown
Sunlit
N/A
Visualization observer readout
Local Sidereal Time
08:20:07
Azimuth
Unknown
Elevation
Unknown
Doppler factor
Unknown
Orbital elements
Apogee altitude
895.851 km
Perigee altitude
874.689 km
Semi-major axis
7,263.407 km
Eccentricity
0.00146
Inclination
82.5331°
RAAN
57.6097°
Arg. of periapsis
140.6007°
True anomaly
219.5163°
Mean anomaly
219.6226°
Eccentric anomaly
219.56943°
Mean motion
3.50617 °/min
Orbital period
102.68 mins
BSTAR
0.0012724
Loading maneuver chart data...
Computing Atmospheric mass density...
Loading historical data...
Loading historical data...
Loading historical data...
Loading historical data...
Loading historical data...
Loading historical data...
Loading historical data...

Documentation

Showing up to 5 results
|